TimePDT,TemperatureF,Dew PointF,Humidity,Sea Level PressureIn,VisibilityMPH,Wind Direction,Wind SpeedMPH,Gust SpeedMPH,PrecipitationIn,Events,Conditions,WindDirDegrees,DateUTC
12:15 AM,46.4,46.4,100,30.14,10.0,WNW,11.5,-,N/A,,Partly Cloudy,290,2013-03-21 07:15:00
12:35 AM,46.4,46.4,100,30.14,10.0,NW,5.8,-,N/A,,Mostly Cloudy,320,2013-03-21 07:35:00
1:15 AM,46.4,46.4,100,30.14,10.0,WNW,5.8,-,N/A,,Overcast,290,2013-03-21 08:15:00
1:35 AM,46.4,46.4,100,30.13,10.0,West,9.2,-,N/A,,Overcast,270,2013-03-21 08:35:00
1:55 AM,46.4,46.4,100,30.14,10.0,West,9.2,-,N/A,,Overcast,270,2013-03-21 08:55:00
2:15 AM,46.4,46.4,100,30.14,10.0,West,9.2,-,N/A,,Overcast,280,2013-03-21 09:15:00
2:35 AM,46.4,46.4,100,30.14,10.0,West,6.9,-,N/A,,Overcast,270,2013-03-21 09:35:00
2:55 AM,44.6,44.6,100,30.14,10.0,West,8.1,-,N/A,,Overcast,280,2013-03-21 09:55:00
3:15 AM,44.6,42.8,93,30.13,10.0,West,8.1,-,N/A,,Overcast,280,2013-03-21 10:15:00
3:55 AM,41.0,41.0,100,30.14,10.0,WSW,3.5,-,N/A,,Mostly Cloudy,250,2013-03-21 10:55:00
4:15 AM,41.0,41.0,100,30.15,10.0,West,3.5,-,N/A,,Scattered Clouds,260,2013-03-21 11:15:00
4:35 AM,37.4,37.4,100,30.14,10.0,Calm,Calm,-,N/A,,Mostly Cloudy,0,2013-03-21 11:35:00
4:55 AM,39.2,39.2,100,30.14,7.0,West,3.5,-,N/A,,Overcast,270,2013-03-21 11:55:00
5:15 AM,37.4,37.4,100,30.12,10.0,Calm,Calm,-,N/A,,Overcast,0,2013-03-21 12:15:00
5:35 AM,37.4,37.4,100,30.12,6.0,West,3.5,-,N/A,,Overcast,280,2013-03-21 12:35:00
5:55 AM,37.4,37.4,100,30.14,8.0,NW,4.6,-,N/A,,Overcast,320,2013-03-21 12:55:00
6:15 AM,37.4,37.4,100,30.14,10.0,WNW,3.5,-,N/A,,Overcast,290,2013-03-21 13:15:00
6:35 AM,35.6,35.6,100,30.13,10.0,Calm,Calm,-,N/A,,Overcast,0,2013-03-21 13:35:00
6:55 AM,35.6,35.6,100,30.14,10.0,WNW,5.8,-,N/A,,Mostly Cloudy,300,2013-03-21 13:55:00
7:15 AM,37.4,37.4,100,30.14,10.0,WNW,5.8,-,N/A,,Clear,290,2013-03-21 14:15:00
7:35 AM,37.4,37.4,100,30.14,10.0,WNW,5.8,-,N/A,,Clear,290,2013-03-21 14:35:00
7:55 AM,39.2,39.2,100,30.14,10.0,West,5.8,-,N/A,,Clear,270,2013-03-21 14:55:00
8:15 AM,41.0,41.0,100,30.14,10.0,WNW,4.6,-,N/A,,Clear,300,2013-03-21 15:15:00
8:35 AM,42.8,41.0,93,30.14,10.0,WNW,5.8,-,N/A,,Clear,300,2013-03-21 15:35:00
8:55 AM,44.6,41.0,87,30.14,10.0,WNW,8.1,-,N/A,,Clear,300,2013-03-21 15:55:00
9:15 AM,46.4,41.0,81,30.14,10.0,WNW,8.1,-,N/A,,Clear,300,2013-03-21 16:15:00
9:35 AM,46.4,41.0,81,30.15,10.0,NW,8.1,-,N/A,,Clear,310,2013-03-21 16:35:00
9:55 AM,48.2,42.8,82,30.15,10.0,WNW,5.8,-,N/A,,Clear,300,2013-03-21 16:55:00
10:15 AM,48.2,42.8,82,30.14,10.0,WNW,6.9,-,N/A,,Clear,290,2013-03-21 17:15:00
10:35 AM,50.0,44.6,82,30.15,10.0,NW,6.9,-,N/A,,Clear,310,2013-03-21 17:35:00
10:55 AM,50.0,42.8,76,30.15,10.0,WNW,6.9,-,N/A,,Clear,300,2013-03-21 17:55:00
11:15 AM,53.6,44.6,72,30.15,10.0,NW,6.9,-,N/A,,Clear,310,2013-03-21 18:15:00
11:35 AM,53.6,44.6,72,30.15,10.0,NW,6.9,-,N/A,,Clear,310,2013-03-21 18:35:00
11:55 AM,55.4,46.4,72,30.14,10.0,NW,4.6,-,N/A,,Clear,310,2013-03-21 18:55:00
12:15 PM,55.4,46.4,72,30.14,10.0,WNW,6.9,-,N/A,,Clear,300,2013-03-21 19:15:00
12:35 PM,57.2,46.4,67,30.14,10.0,WNW,5.8,-,N/A,,Clear,290,2013-03-21 19:35:00
12:55 PM,57.2,46.4,67,30.13,10.0,West,10.4,-,N/A,,Clear,270,2013-03-21 19:55:00
1:15 PM,59.0,48.2,67,30.12,10.0,West,9.2,18.4,N/A,,Clear,280,2013-03-21 20:15:00
1:35 PM,59.0,46.4,63,30.11,10.0,WNW,10.4,-,N/A,,Clear,290,2013-03-21 20:35:00
1:55 PM,59.0,46.4,63,30.11,10.0,West,9.2,-,N/A,,Clear,270,2013-03-21 20:55:00
2:15 PM,60.8,48.2,63,30.10,10.0,WNW,9.2,-,N/A,,Clear,300,2013-03-21 21:15:00
2:35 PM,60.8,46.4,59,30.08,10.0,WNW,10.4,-,N/A,,Clear,290,2013-03-21 21:35:00
2:55 PM,60.8,46.4,59,30.08,10.0,West,10.4,-,N/A,,Clear,270,2013-03-21 21:55:00
3:15 PM,60.8,46.4,59,30.07,10.0,West,10.4,-,N/A,,Clear,270,2013-03-21 22:15:00
3:35 PM,60.8,44.6,55,30.06,10.0,West,13.8,18.4,N/A,,Clear,270,2013-03-21 22:35:00
3:55 PM,59.0,46.4,63,30.06,10.0,West,12.7,17.3,N/A,,Clear,270,2013-03-21 22:55:00
4:15 PM,59.0,44.6,59,30.06,10.0,West,15.0,-,N/A,,Clear,280,2013-03-21 23:15:00
4:35 PM,59.0,41.0,51,30.06,10.0,West,11.5,-,N/A,,Clear,270,2013-03-21 23:35:00
4:55 PM,59.0,41.0,51,30.05,10.0,West,12.7,-,N/A,,Clear,270,2013-03-21 23:55:00
5:15 PM,57.2,41.0,55,30.05,10.0,WNW,12.7,-,N/A,,Clear,290,2013-03-22 00:15:00
5:35 PM,57.2,41.0,55,30.05,10.0,WNW,10.4,16.1,N/A,,Clear,300,2013-03-22 00:35:00
5:55 PM,57.2,42.8,59,30.05,10.0,WNW,6.9,-,N/A,,Clear,290,2013-03-22 00:55:00
6:15 PM,57.2,42.8,59,30.04,10.0,West,9.2,-,N/A,,Clear,270,2013-03-22 01:15:00
6:35 PM,55.4,41.0,58,30.04,10.0,WNW,6.9,-,N/A,,Clear,300,2013-03-22 01:35:00
6:55 PM,55.4,41.0,58,30.04,10.0,West,6.9,-,N/A,,Clear,280,2013-03-22 01:55:00
7:15 PM,53.6,41.0,62,30.04,10.0,West,8.1,-,N/A,,Clear,280,2013-03-22 02:15:00
7:35 PM,50.0,41.0,71,30.04,10.0,WNW,5.8,-,N/A,,Clear,290,2013-03-22 02:35:00
7:55 PM,50.0,41.0,71,30.05,10.0,NW,4.6,-,N/A,,Mostly Cloudy,320,2013-03-22 02:55:00
8:15 PM,46.4,41.0,81,30.05,10.0,Calm,Calm,-,N/A,,Overcast,0,2013-03-22 03:15:00
8:35 PM,48.2,41.0,76,30.05,10.0,NW,3.5,-,N/A,,Overcast,320,2013-03-22 03:35:00
8:55 PM,46.4,41.0,81,30.06,10.0,NW,3.5,-,N/A,,Overcast,320,2013-03-22 03:55:00
9:15 PM,44.6,41.0,87,30.06,10.0,NW,3.5,-,N/A,,Overcast,320,2013-03-22 04:15:00
9:35 PM,41.0,39.2,93,30.07,10.0,Calm,Calm,-,N/A,,Mostly Cloudy,0,2013-03-22 04:35:00
9:55 PM,44.6,41.0,87,30.07,10.0,West,3.5,-,N/A,,Partly Cloudy,280,2013-03-22 04:55:00
10:15 PM,44.6,41.0,87,30.08,10.0,WNW,4.6,-,N/A,,Clear,290,2013-03-22 05:15:00
10:35 PM,44.6,39.2,81,30.07,10.0,WNW,6.9,-,N/A,,Clear,290,2013-03-22 05:35:00
10:55 PM,44.6,39.2,81,30.07,10.0,West,6.9,-,N/A,,Clear,280,2013-03-22 05:55:00
11:15 PM,44.6,39.2,81,30.08,10.0,West,4.6,-,N/A,,Clear,280,2013-03-22 06:15:00
11:35 PM,44.6,37.4,76,30.08,10.0,WNW,4.6,-,N/A,,Clear,290,2013-03-22 06:35:00
11:55 PM,44.6,37.4,76,30.08,10.0,West,6.9,-,N/A,,Clear,280,2013-03-22 06:55:00